Simultaneous Nadir Overpasses (SNOs) Predictions

Prediction of SNOs between METOP-B and TERRA Satellite Orbit:

Table of predicted SNOs for the next 14.0 days since TLE Epoch: 8/21/2021
Index Date (METOP-B) Time (METOP-B) Lat,Lon (METOP-B) SZA (METOP-B ) Date (TERRA) Time (TERRA) Lat,Lon (TERRA) SZA (TERRA ) Distance(km) Time Diff (sec)
1 08/23/2021 03:37:38 -81.25, -9.82 107.65 08/23/2021 03:37:55 -81.24, -9.77 107.64 1.04 17
2 08/23/2021 04:28:17 81.27, 158.34 72.47 08/23/2021 04:27:20 81.27, 158.35 72.45 0.71 57
3 08/25/2021 23:12:00 -81.25, 56.85 106.63 08/25/2021 23:12:06 -81.26, 57.03 106.60 3.26 6
4 08/26/2021 00:02:40 81.26,-135.40 73.44 08/26/2021 00:01:32 81.27,-135.25 73.43 2.62 68
5 08/28/2021 17:55:42 81.25, -44.44 74.32 08/28/2021 17:56:51 81.24, -44.54 74.34 1.76 69
6 08/28/2021 18:46:21 -81.26, 123.51 105.59 08/28/2021 18:46:17 -81.26, 123.42 105.60 1.46 4
7 08/31/2021 13:30:05 81.24, 21.78 75.32 08/31/2021 13:31:03 81.24, 21.78 75.35 0.72 58
8 08/31/2021 14:20:44 -81.26,-170.24 104.59 08/31/2021 14:20:29 -81.26,-170.22 104.59 0.35 15
9 09/03/2021 09:04:27 81.25, 88.36 76.39 09/03/2021 09:05:14 81.25, 88.44 76.42 1.44 47



Historial Predications of SNOs between METOP-B and TERRA
